S&P 400 MIDCAP INDEX,RTH
ISIN:US78380M2061
Region: Global
Sektor: Sonstiges
aktueller Kurs:
-
Veränderung:
-
Veränderung in %:
- %
Komplette Navigation anzeigen
Abstand
Datum Unternehmen damals ±%
Allzeithoch
09.06.22 Lincoln Electric 130,00 -10,00%
30.05.22 W.R. Berkley 67,50 -2,96%
18.05.22 Hologic 74,64 -11,67%
05.05.22 Service Corporation International 67,37 -3,43%
04.05.22 Packaging Of American 155,00 -14,84%
26.04.22 Church & Dwight 97,11 -10,62%
22.04.22 Steel Dynamics 88,84 -28,49%
22.04.22 Jack Henry & Associates 186,60 -8,38%
21.04.22 Alliant Energy 60,00 -8,33%
21.04.22 Arthur J. Gallagher 169,00 -9,47%
21.04.22 Atmos Energy 112,28 -7,07%
21.04.22 UDR 54,50 -19,27%
21.04.22 Universal Health Services 143,22 -29,70%
21.04.22 Raymond James Financial 104,00 -16,83%
21.04.22 Everest Re 272,00 -2,94%
21.04.22 Essex Property Trust 332,00 -24,10%
20.04.22 Extra Space Storage 202,60 -19,50%
18.04.22 Henry Schein 85,01 -12,99%
08.04.22 Brown & Brown 67,50 -18,52%
23.03.22 JB Hunt Transport Services 195,00 -23,19%
07.03.22 Cooper Companies 388,40 -23,20%
19.01.22 Advance Auto Parts 212,00 -19,81%
05.01.22 A.O. Smith 75,26 -30,87%
05.01.22 Jones Lang LaSalle 244,00 -31,15%
05.01.22 LKQ 52,50 -10,48%
04.01.22 Mid American Apartment 202,00 -18,32%
04.01.22 Arrow Electronics 121,00 -13,22%
03.01.22 Domino's Pizza 494,20 -24,86%
03.01.22 Alexandria Real Estate 195,00 -29,74%
31.12.21 Duke Realty 57,50 -7,83%
31.12.21 Fortinet 325,00 -83,36%
31.12.21 Mettler-Toledo 1.500,00 -28,30%
31.12.21 NVR 5.250,00 -28,76%
29.12.21 Factset Research Systems 432,20 -17,68%
29.12.21 Ansys 361,60 -36,75%
29.12.21 Broadridge Financial 162,00 -16,67%
29.12.21 Graco 71,00 -20,62%
28.12.21 Teradyne 149,10 -39,91%
28.12.21 Cadence Design Systems 170,04 -16,09%
27.12.21 Synopsys 330,80 -12,48%
13.12.21 Cboe Global Markets 117,00 -7,69%
13.12.21 Martin Marietta Materials 392,50 -26,70%
08.12.21 Old Dominion Freight Line 320,20 -25,81%
07.12.21 IDEX Corporation 212,00 -18,87%
29.11.21 AMD 143,22 -48,17%
25.11.21 SVB Financial 671,40 -43,16%
22.11.21 Zebra Technologies 539,00 -46,75%
22.11.21 Silicon Labs 183,00 -26,78%
18.11.21 Copart 138,45 -25,66%
17.11.21 MSCI 598,00 -34,70%
17.11.21 Fortune Brands Home & Security 96,00 -39,58%
08.11.21 United Rentals 338,00 -30,49%
02.11.21 Gartner 308,00 -26,27%
27.09.21 Charles River Laboratories International 388,00 -47,14%
23.09.21 Align Technology 620,60 -63,01%
06.09.21 Resmed 251,60 -21,09%
03.09.21 Bio-Rad Laboratories 695,00 -32,37%
30.08.21 Trimble 81,48 -32,46%
05.08.21 Idexx Laboratories 595,60 -44,45%
29.07.21 Skyworks Solutions 165,56 -46,57%
5-Jahres-Hoch
04.01.22 Regency Centers 69,00 -16,67%
3-Jahres-Hoch
30.03.22 WABTEC 89,32 -12,06%
12-Monats-Hoch
03.06.22 UGI 41,27 -7,29%
27.05.22 Rollins 34,40 -4,65%
04.05.22 Huntington Ingalls 209,10 -1,77%
21.04.22 Leidos Holdings 102,52 -8,54%
21.04.22 Realty Income 69,23 -4,98%
22.11.21 Under Armour 23,80 -63,74%
6-Monats-Hoch
30.05.22 PTC 111,50 -9,74%
27.05.22 Albemarle 252,55 -16,33%
21.04.22 Alaska Air Group 56,06 -30,91%
14.02.22 Hollyfrontier 33,99 -4,24%
10.02.22 Fair Isaac 456,00 -16,67%

Der Leitfaden für Ihr Vermögen

Absolut einzigartig!

So lautet das Feedback tausender Anleger zum „Leitfaden für Ihr Vermögen“. Denn Börse kann jeder und Börse macht Spaß! Das zeigen die Autoren Thomas Müller und Jochen Appeltauer. Deshalb wurde der „Leitfaden für Ihr Vermögen“ bereits mehr als 164.000 mal versendet und ist das Standardwerk für (Neu-)Börsianer. Hier gratis per Post anfordern oder einfach digital lesen.

© 1994-2022 by boerse.de - Quelle für Kurse und Daten: ARIVA.DE AG - boerse.de übernimmt keine Gewähr